1501016400.67,57284,19.31,72980.5,3.45,2.73,2.73,0,*73
1501016401.92,57285,19.31,72982.8,3.45,2.73,2.73,0,*72
1501016403.17,57286,19.31,72986.0,3.45,2.73,2.73,0,*71
1501016404.38,57287,19.31,72986.0,3.45,2.61,2.61,0,*70
1501016405.61,57288,19.31,72982.5,3.45,2.61,2.59,0,*74
1501016406.84,57289,19.31,72982.3,3.45,2.61,2.69,0,*76
1501016408.07,57290,19.31,72980.5,3.45,2.61,2.69,0,*7E
1501016409.32,57291,19.31,72980.3,3.45,2.69,2.69,0,*77
1501016410.57,57292,19.31,72982.3,3.45,2.73,2.73,0,*74
1501016411.82,57293,19.31,72980.3,3.45,2.73,2.73,0,*75
1501016413.07,57294,19.31,72980.3,3.45,2.73,2.73,0,*72
1501016414.32,57295,19.31,72980.3,3.45,2.73,2.73,0,*73
1501016415.54,57296,19.31,72982.3,3.43,2.73,2.73,0,*76
1501016416.76,57297,19.31,72984.8,3.43,2.73,2.77,0,*73
1501016417.99,57298,19.31,72980.3,3.43,2.73,2.73,0,*78
1501016419.24,57299,19.31,72980.5,3.45,2.73,2.73,0,*7F
1501016420.47,57300,19.31,72982.8,3.43,2.77,2.77,0,*78
1501016421.72,57301,19.31,72982.8,3.45,2.73,2.77,0,*7B
1501016422.97,57302,19.31,72986.5,3.45,2.77,2.73,0,*78
1501016424.22,57303,19.31,72980.5,3.45,2.73,2.77,0,*79
1501016425.47,57304,19.31,72982.8,3.45,2.73,2.73,0,*7A
1501016426.72,57305,19.31,72982.3,3.45,2.73,2.73,0,*7B
1501016427.97,57306,19.31,72982.8,3.45,2.73,2.73,0,*78
1501016429.22,57307,19.31,72982.3,3.45,2.77,2.73,0,*7D
1501016430.45,57308,19.31,72982.0,3.43,2.69,2.73,0,*7B
1501016431.7,57309,19.31,72980.0,3.45,2.69,2.73,0,*7C
1501016432.95,57310,19.31,72982.5,3.45,2.69,2.73,0,*74
1501016434.21,57311,19.31,72982.5,3.45,2.69,2.73,0,*75
1501016435.43,57312,19.31,72984.0,3.43,2.73,2.77,0,*7F
1501016436.68,57313,19.31,72982.3,3.45,2.73,2.77,0,*78
1501016437.93,57314,19.31,72984.5,3.45,2.73,2.73,0,*7B
1501016439.18,57315,19.31,72982.0,3.45,2.73,2.73,0,*7A
1501016440.42,57316,19.31,72984.0,3.51,2.81,2.81,0,*7C
1501016441.67,57317,19.31,72982.0,3.45,2.73,2.73,0,*78
1501016442.92,57318,19.31,72984.5,3.45,2.77,2.77,0,*77
1501016444.18,57319,19.31,72984.8,3.49,2.77,2.77,0,*7A
1501016445.44,57320,19.31,72986.5,3.49,2.81,2.81,0,*70
1501016446.69,57321,19.31,72984.8,3.45,2.77,2.77,0,*7D
1501016447.94,57322,19.31,72984.5,3.45,2.73,2.73,0,*7E
1501016449.15,57323,19.31,72980.0,3.45,2.61,2.61,0,*7F
1501016450.39,57324,19.31,72980.5,3.45,2.59,2.61,0,*73
1501016451.63,57325,19.31,72984.8,3.45,2.59,2.61,0,*72
1501016452.88,57326,19.31,72984.3,3.45,2.59,2.69,0,*79
1501016454.09,57327,19.31,72982.3,3.45,2.61,2.61,0,*7B
1501016455.3,57328,19.31,72986.8,3.45,2.61,2.61,0,*74
1501016456.56,57329,19.31,72982.8,3.45,2.51,2.59,0,*7D
1501016457.81,57330,19.31,72980.5,3.45,2.51,2.47,0,*7A
1501016459.05,57331,19.31,72978.3,3.43,2.51,2.51,0,*7A
1501016460.31,57332,19.31,72984.3,3.45,2.51,2.59,0,*77
1501016461.57,57333,19.31,72986.5,3.45,2.59,2.51,0,*76
1501016462.8,57334,19.31,72986.5,3.43,2.51,2.51,0,*7F
1501016464.04,57335,19.31,72986.5,3.43,2.47,2.51,0,*79
1501016465.3,57336,19.31,72982.0,3.45,2.51,2.51,0,*7B
1501016466.53,57337,19.31,72980.0,3.43,2.51,2.47,0,*7B
1501016467.76,57338,19.31,72982.0,3.43,2.39,2.47,0,*7A
1501016468.99,57339,19.31,72982.0,3.43,2.39,2.47,0,*7B
1501016470.22,57340,19.31,72980.0,3.43,2.47,2.51,0,*7B
1501016471.46,57341,19.31,72982.8,3.43,2.51,2.51,0,*7D
1501016472.72,57342,19.31,72982.8,3.45,2.51,2.59,0,*70
1501016473.95,57343,19.31,72982.3,3.43,2.59,2.59,0,*7F
1501016475.18,57344,19.31,72982.8,3.43,2.69,2.51,0,*73
1501016476.39,57345,19.31,72984.0,3.43,2.59,2.61,0,*72
1501016477.62,57346,19.31,72982.0,3.45,2.61,2.51,0,*7F
1501016478.81,57347,19.31,72984.0,3.43,2.61,2.61,0,*7B
1501016480.01,57348,19.31,72982.3,3.43,2.69,2.61,0,*7C
1501016481.23,57349,19.31,72982.8,3.43,2.69,2.69,0,*75
1501016482.46,57350,19.31,72984.8,3.43,2.69,2.69,0,*7D
1501016483.68,57351,19.31,72980.5,3.43,2.69,2.69,0,*7C
1501016484.9,57352,19.31,72984.5,3.43,2.73,2.69,0,*74
1501016486.12,57353,19.31,72984.0,3.43,2.73,2.69,0,*75
1501016487.34,57354,19.31,72980.5,3.43,2.73,2.69,0,*72
1501016488.56,57355,19.31,72982.5,3.43,2.69,2.69,0,*78
1501016489.76,57356,19.31,72980.3,3.43,2.61,2.69,0,*73
1501016490.99,57357,19.31,72980.0,3.43,2.69,2.69,0,*7A
1501016492.2,57358,19.31,72982.3,3.41,2.65,2.65,0,*77
1501016493.39,57359,19.31,72980.5,3.43,2.65,2.65,0,*74
1501016494.61,57360,19.31,72982.8,3.43,2.69,2.69,0,*7E
1501016495.83,57361,19.31,72980.5,3.43,2.69,2.73,0,*74
1501016497.09,57362,19.31,72984.0,3.45,2.69,2.73,0,*71
1501016498.31,57363,19.31,72984.5,3.43,2.69,2.69,0,*7D
1501016499.52,57364,19.31,72980.5,3.43,2.69,2.61,0,*72
1501016500.74,57365,19.31,72982.0,3.43,2.69,2.69,0,*7B
1501016501.95,57366,19.31,72982.3,3.43,2.69,2.61,0,*70
1501016503.13,57367,19.31,72986.5,3.43,2.61,2.61,0,*79
1501016504.33,57368,19.31,72980.8,3.43,2.61,2.69,0,*7E
1501016505.53,57369,19.31,72980.3,3.43,2.61,2.69,0,*7F
1501016506.75,57370,19.31,72980.8,3.43,2.73,2.69,0,*74
1501016507.97,57371,19.31,72986.5,3.43,2.73,2.69,0,*75
1501016509.21,57372,19.31,72980.8,3.41,2.59,2.65,0,*70
1501016510.43,57373,19.31,72982.0,3.43,2.69,2.69,0,*7C
1501016511.66,57374,19.31,72982.3,3.43,2.69,2.69,0,*7B
1501016512.86,57375,19.31,72980.8,3.43,2.69,2.61,0,*72
1501016514.08,57376,19.31,72982.3,3.43,2.69,2.69,0,*79
1501016515.3,57377,19.31,72978.3,3.41,2.65,2.65,0,*7A
1501016516.56,57378,19.31,72982.0,3.41,2.59,2.59,0,*75
1501016517.81,57379,19.31,72980.3,3.41,2.59,2.55,0,*78
1501016519.05,57380,19.31,72982.8,3.41,2.65,2.59,0,*7D
1501016520.27,57381,19.31,72984.3,3.41,2.65,2.65,0,*73
1501016521.47,57382,19.31,72982.3,3.43,2.69,2.61,0,*7A
1501016522.69,57383,19.31,72982.3,3.43,2.69,2.69,0,*73
1501016523.92,57384,19.31,72980.8,3.43,2.69,2.69,0,*74
1501016525.14,57385,19.31,72980.0,3.43,2.69,2.69,0,*75
1501016526.36,57386,19.31,72980.8,3.43,2.69,2.69,0,*76
1501016527.55,57387,19.31,72982.3,3.43,2.61,2.61,0,*77
1501016528.73,57388,19.31,72980.5,3.43,2.61,2.61,0,*78
1501016529.91,57389,19.31,72982.3,3.43,2.61,2.61,0,*79
1501016531.12,57390,19.31,72980.5,3.43,2.69,2.61,0,*79
1501016532.34,57391,19.31,72982.3,3.43,2.69,2.69,0,*70
1501016533.58,57392,19.31,72980.0,3.41,2.65,2.59,0,*7E
1501016534.79,57393,19.31,72982.0,3.41,2.65,2.65,0,*70
1501016536.01,57394,19.31,72982.0,3.41,2.65,2.65,0,*77
1501016537.23,57395,19.31,72982.3,3.43,2.69,2.69,0,*74
1501016538.45,57396,19.31,72984.0,3.43,2.69,2.69,0,*77
1501016539.68,57397,19.31,72980.8,3.43,2.77,2.69,0,*79
1501016540.9,57398,19.31,72980.8,3.43,2.73,2.69,0,*72
1501016542.12,57399,19.31,72984.5,3.43,2.73,2.73,0,*78
1501016543.34,57400,19.31,72982.8,3.41,2.65,2.65,0,*7D
1501016544.55,57401,19.31,72984.5,3.41,2.65,2.65,0,*7C
1501016545.76,57402,19.31,72984.5,3.41,2.65,2.65,0,*7F
1501016546.98,57403,19.31,72982.8,3.41,2.65,2.65,0,*7E
1501016548.19,57404,19.31,72976.3,3.41,2.65,2.65,0,*79
1501016549.41,57405,19.31,72982.8,3.43,2.69,2.69,0,*7A
1501016550.63,57406,19.31,72982.8,3.41,2.65,2.65,0,*7B
1501016551.84,57407,19.31,72978.5,3.41,2.65,2.65,0,*7A
1501016553.06,57408,19.31,72982.8,3.41,2.65,2.65,0,*75
1501016554.24,57409,19.31,72982.5,3.43,2.65,2.65,0,*76
1501016555.48,57410,19.31,72980.5,3.41,2.65,2.59,0,*73
1501016556.72,57411,19.31,72980.3,3.41,2.59,2.65,0,*72
1501016557.95,57412,19.31,72982.3,3.41,2.59,2.65,0,*71
1501016559.19,57413,19.31,72978.0,3.41,2.65,2.59,0,*70
1501016560.41,57414,19.31,72978.5,3.41,2.65,2.65,0,*78
1501016561.62,57415,19.31,72982.0,3.41,2.65,2.65,0,*79
1501016562.83,57416,19.31,72976.8,3.41,2.65,2.65,0,*7A
1501016564.05,57417,19.31,72982.0,3.41,2.65,2.65,0,*7B
1501016565.26,57418,19.31,72978.8,3.41,2.65,2.65,0,*74
1501016566.48,57419,19.31,72980.5,3.41,2.65,2.65,0,*75
1501016567.69,57420,19.31,72980.0,3.41,2.65,2.65,0,*7F
1501016568.93,57421,19.31,72982.3,3.41,2.65,2.59,0,*71
1501016570.14,57422,19.31,72982.3,3.41,2.65,2.65,0,*7D
1501016571.37,57423,19.31,72982.0,3.41,2.69,2.65,0,*70
1501016572.61,57424,19.31,72982.0,3.41,2.69,2.65,0,*77
1501016573.84,57425,19.31,72980.5,3.41,2.73,2.65,0,*7D
1501016575.06,57426,19.31,72982.8,3.43,2.73,2.69,0,*70
1501016576.28,57427,19.31,72980.0,3.43,2.73,2.73,0,*7A
1501016577.54,57428,19.31,72978.8,3.41,2.69,2.69,0,*77
1501016578.79,57429,19.31,72980.3,3.41,2.69,2.69,0,*76
1501016580.01,57430,19.31,72982.0,3.43,2.69,2.73,0,*77
1501016581.24,57431,19.31,72982.3,3.43,2.69,2.73,0,*76
1501016582.45,57432,19.25,72976.5,3.41,2.65,2.65,0,*7C
1501016583.69,57433,19.31,72984.0,3.41,2.65,2.69,0,*71
1501016584.92,57434,19.31,72984.3,3.41,2.65,2.69,0,*76
1501016586.13,57435,19.31,72984.0,3.41,2.65,2.65,0,*7B
1501016587.35,57436,19.31,72980.5,3.41,2.65,2.65,0,*78
1501016588.56,57437,19.31,72978.5,3.41,2.65,2.65,0,*79
1501016589.81,57438,19.31,72982.0,3.41,2.69,2.69,0,*76
1501016591.07,57439,19.31,72982.8,3.41,2.69,2.73,0,*7C
1501016592.32,57440,19.31,72980.3,3.41,2.73,2.69,0,*72
1501016593.57,57441,19.31,72982.0,3.41,2.73,2.69,0,*73
1501016594.82,57442,19.31,72980.5,3.41,2.73,2.69,0,*70
1501016596.04,57443,19.31,72980.3,3.39,2.73,2.69,0,*7E
1501016597.29,57444,19.31,72980.3,3.41,2.69,2.69,0,*7D
1501016598.55,57445,19.31,72982.0,3.41,2.69,2.73,0,*77
1501016599.8,57446,19.31,72982.8,3.41,2.69,2.69,0,*7F
1501016601.05,57447,19.31,72978.5,3.41,2.69,2.69,0,*7E
1501016602.31,57448,19.31,72982.5,3.41,2.69,2.69,0,*71
1501016603.53,57449,19.31,72982.0,3.39,2.69,2.69,0,*7F
1501016604.75,57450,19.31,72980.3,3.39,2.73,2.69,0,*7C
1501016606.0,57451,19.31,72980.0,3.41,2.69,2.69,0,*79
1501016607.25,57452,19.31,72980.5,3.41,2.69,2.69,0,*7A
1501016608.51,57453,19.31,72984.0,3.41,2.69,2.69,0,*7B
1501016609.76,57454,19.31,72980.0,3.41,2.69,2.69,0,*7C
1501016611.01,57455,19.31,72982.3,3.41,2.73,2.69,0,*76
1501016612.26,57456,19.31,72980.5,3.41,2.69,2.69,0,*7E
1501016613.51,57457,19.31,72982.3,3.41,2.73,2.69,0,*74
1501016614.77,57458,19.31,72980.5,3.41,2.69,2.73,0,*7B
1501016616.02,57459,19.31,72980.0,3.41,2.69,2.73,0,*7A
1501016617.25,57460,19.31,72982.8,3.43,2.73,2.73,0,*79
1501016618.47,57461,19.31,72978.8,3.43,2.73,2.73,0,*78
1501016619.72,57462,19.31,72980.5,3.41,2.69,2.69,0,*79
1501016620.97,57463,19.31,72978.0,3.41,2.69,2.69,0,*78
1501016622.23,57464,19.31,72982.3,3.41,2.69,2.73,0,*74
1501016623.48,57465,19.31,72980.0,3.41,2.69,2.69,0,*7E
1501016624.73,57466,19.31,72980.5,3.41,2.73,2.69,0,*76
1501016625.98,57467,19.31,72982.0,3.41,2.73,2.69,0,*77
1501016627.23,57468,19.31,72978.8,3.41,2.73,2.69,0,*78
1501016628.48,57469,19.31,72982.0,3.41,2.73,2.73,0,*72
1501016629.74,57470,19.31,72980.8,3.41,2.73,2.73,0,*7A
1501016630.96,57471,19.31,72980.8,3.43,2.73,2.73,0,*79
1501016632.19,57472,19.31,72984.5,3.43,2.77,2.77,0,*7A
1501016633.41,57473,19.31,72986.5,3.43,2.73,2.77,0,*7F
1501016634.64,57474,19.31,72982.0,3.43,2.73,2.73,0,*7C
1501016635.86,57475,19.31,72980.8,3.43,2.77,2.73,0,*79
1501016637.12,57476,19.31,72980.8,3.41,2.69,2.69,0,*7C
1501016638.34,57477,19.31,72980.3,3.43,2.73,2.73,0,*7F
1501016639.54,57478,19.31,72982.0,3.43,2.73,2.61,0,*73
1501016640.73,57479,19.31,72980.5,3.43,2.61,2.61,0,*71
1501016641.96,57480,19.25,72980.3,3.43,2.59,2.59,0,*77
1501016643.16,57481,19.31,72980.3,3.43,2.61,2.59,0,*7D
1501016644.39,57482,19.31,72980.0,3.43,2.59,2.59,0,*75
1501016645.6,57483,19.31,72980.8,3.43,2.61,2.59,0,*7F
1501016646.83,57484,19.31,72984.8,3.43,2.59,2.51,0,*7B
1501016648.06,57485,19.31,72980.5,3.43,2.59,2.51,0,*7A
1501016649.29,57486,19.31,72976.3,3.43,2.51,2.47,0,*76
1501016650.55,57487,19.31,72980.3,3.41,2.55,2.43,0,*75
1501016651.81,57488,19.31,72980.8,3.41,2.47,2.43,0,*79
1501016653.04,57489,19.31,72980.3,3.39,2.47,2.43,0,*77
1501016654.3,57490,19.31,72982.5,3.41,2.55,2.55,0,*74
1501016655.53,57491,19.31,72984.8,3.39,2.47,2.55,0,*79
1501016656.79,57492,19.31,72980.5,3.41,2.43,2.43,0,*76
1501016658.05,57493,19.31,72978.8,3.41,2.43,2.43,0,*77
1501016659.28,57494,19.31,72980.0,3.39,2.43,2.43,0,*7F
1501016660.51,57495,19.31,72980.8,3.39,2.43,2.43,0,*7E
1501016661.71,57496,19.31,72982.0,3.41,2.35,2.35,0,*72
1501016662.95,57497,19.31,72980.0,3.41,2.35,2.43,0,*72
1501016664.17,57498,19.31,72982.3,3.41,2.25,2.31,0,*79
1501016665.37,57499,19.31,72978.8,3.39,2.35,2.21,0,*77
1501016666.54,57500,19.31,72978.3,3.39,2.35,2.31,0,*77
1501016667.8,57501,19.31,72978.8,3.41,2.43,2.43,0,*7D
1501016669.04,57502,19.31,72978.5,3.39,2.43,2.43,0,*71
1501016670.27,57503,19.31,72982.5,3.39,2.43,2.43,0,*70
1501016671.47,57504,19.31,72982.0,3.39,2.35,2.43,0,*76
1501016672.7,57505,19.25,72974.3,3.39,2.43,2.43,0,*76
1501016673.9,57506,19.31,72978.8,3.39,2.43,2.35,0,*74
1501016675.1,57507,19.31,72980.8,3.37,2.31,2.31,0,*7A
1501016676.31,57508,19.31,72976.8,3.35,2.43,2.31,0,*72
1501016677.54,57509,19.31,72978.5,3.37,2.31,2.39,0,*7C
1501016678.8,57510,19.31,72980.0,3.37,2.39,2.39,0,*7C
1501016680.05,57511,19.31,72978.8,3.37,2.39,2.39,0,*7D
1501016681.31,57512,19.31,72982.0,3.37,2.43,2.39,0,*73
1501016682.57,57513,19.31,72976.8,3.37,2.43,2.39,0,*72
1501016683.81,57514,19.31,72976.3,3.35,2.55,2.51,0,*7E
1501016685.04,57515,19.31,72976.8,3.35,2.51,2.51,0,*7B
1501016686.3,57516,19.31,72978.3,3.37,2.55,2.43,0,*7D
1501016687.53,57517,19.31,72978.0,3.35,2.55,2.51,0,*7D
1501016688.76,57518,19.31,72982.0,3.37,2.61,2.55,0,*73
1501016689.99,57519,19.31,72978.3,3.35,2.51,2.55,0,*73
1501016691.23,57520,19.31,72978.8,3.35,2.51,2.51,0,*7D
1501016692.49,57521,19.31,72978.3,3.37,2.51,2.51,0,*7E
1501016693.73,57522,19.31,72976.3,3.35,2.51,2.51,0,*7F
1501016694.97,57523,19.31,72978.5,3.35,2.51,2.51,0,*7E
1501016696.17,57524,19.31,72976.8,3.35,2.61,2.55,0,*7E
1501016697.4,57525,19.31,72980.0,3.37,2.61,2.55,0,*7D
1501016698.61,57526,19.31,72976.8,3.37,2.61,2.61,0,*79
1501016699.82,57527,19.31,72976.3,3.35,2.61,2.55,0,*7D
1501016701.0,57528,19.25,72976.0,3.35,2.61,2.61,0,*75
1501016702.21,57529,19.31,72978.3,3.37,2.61,2.61,0,*76
1501016703.46,57530,19.31,72972.8,3.37,2.55,2.55,0,*7E
1501016704.65,57531,19.31,72978.3,3.35,2.61,2.61,0,*7D
1501016705.84,57532,19.31,72974.5,3.35,2.61,2.61,0,*7E
1501016707.03,57533,19.31,72972.0,3.35,2.61,2.61,0,*7F
1501016708.28,57534,19.31,72974.3,3.37,2.55,2.55,0,*7A
1501016709.48,57535,19.25,72972.5,3.35,2.61,2.55,0,*7E
1501016710.69,57536,19.31,72978.5,3.35,2.55,2.61,0,*7D
1501016711.9,57537,19.31,72978.0,3.37,2.61,2.61,0,*79
1501016713.14,57538,19.31,72978.0,3.37,2.55,2.61,0,*71
1501016714.35,57539,19.31,72978.0,3.35,2.55,2.61,0,*72
1501016715.58,57540,19.31,72976.8,3.35,2.51,2.55,0,*7F
1501016716.81,57541,19.31,72976.0,3.35,2.55,2.43,0,*7D
1501016718.04,57542,19.31,72976.0,3.35,2.55,2.55,0,*79
1501016719.24,57543,19.31,72974.8,3.35,2.61,2.55,0,*7F
1501016720.45,57544,19.31,72978.5,3.35,2.55,2.61,0,*78
1501016721.66,57545,19.31,72978.0,3.35,2.55,2.61,0,*79
1501016722.89,57546,19.31,72976.5,3.37,2.61,2.55,0,*78
1501016724.1,57547,19.31,72978.8,3.35,2.55,2.61,0,*7B
1501016725.3,57548,19.31,72976.3,3.35,2.61,2.55,0,*74
1501016726.49,57549,19.31,72976.3,3.35,2.61,2.61,0,*72
1501016727.7,57550,19.31,72978.0,3.35,2.55,2.61,0,*7D
1501016728.89,57551,19.31,72980.0,3.35,2.61,2.61,0,*7B
1501016730.08,57552,19.31,72978.3,3.35,2.65,2.61,0,*7C
1501016731.26,57553,19.31,72976.8,3.35,2.61,2.61,0,*79
1501016732.45,57554,19.25,72972.8,3.35,2.61,2.61,0,*7E
1501016733.66,57555,19.31,72978.0,3.35,2.61,2.55,0,*78
1501016734.87,57556,19.31,72976.8,3.35,2.55,2.61,0,*7B
1501016736.08,57557,19.31,72978.5,3.35,2.55,2.61,0,*7A
1501016737.33,57558,19.31,72978.8,3.37,2.55,2.55,0,*70
1501016738.54,57559,19.31,72978.5,3.35,2.55,2.61,0,*74
1501016739.72,57560,19.31,72982.5,3.35,2.61,2.61,0,*79
1501016740.91,57561,19.31,72976.3,3.35,2.61,2.61,0,*78
1501016742.12,57562,19.31,72980.3,3.37,2.65,2.61,0,*7D
1501016743.34,57563,19.31,72978.5,3.37,2.65,2.65,0,*78
1501016744.52,57564,19.31,72982.0,3.35,2.65,2.65,0,*7D
1501016745.71,57565,19.31,72982.3,3.35,2.65,2.65,0,*7C
1501016746.92,57566,19.25,72974.3,3.37,2.65,2.65,0,*7D
1501016748.11,57567,19.31,72976.8,3.35,2.65,2.65,0,*7E
1501016749.3,57568,19.25,72978.0,3.35,2.65,2.65,0,*71
1501016750.51,57569,19.25,72972.5,3.35,2.55,2.61,0,*77
1501016751.7,57570,19.31,72976.8,3.35,2.61,2.61,0,*78
1501016752.88,57571,19.31,72976.8,3.35,2.61,2.61,0,*79
1501016754.07,57572,19.31,72976.5,3.35,2.61,2.61,0,*7A
1501016755.28,57573,19.31,72974.3,3.37,2.61,2.61,0,*79
1501016756.47,57574,19.31,72976.8,3.35,2.61,2.61,0,*7C
1501016757.65,57575,19.31,72976.3,3.35,2.61,2.61,0,*7D
1501016758.84,57576,19.31,72978.5,3.35,2.61,2.61,0,*7E
1501016760.03,57577,19.31,72976.0,3.35,2.61,2.61,0,*7F
1501016761.22,57578,19.31,72978.8,3.35,2.61,2.61,0,*70
1501016762.4,57579,19.31,72980.8,3.35,2.61,2.65,0,*75
1501016763.59,57580,19.31,72980.5,3.35,2.61,2.61,0,*77
1501016764.78,57581,19.31,72978.0,3.35,2.61,2.61,0,*76
1501016765.96,57582,19.31,72978.0,3.35,2.61,2.61,0,*75
1501016767.15,57583,19.31,72978.8,3.35,2.61,2.61,0,*74
1501016768.38,57584,19.31,72978.3,3.35,2.55,2.55,0,*73
1501016769.58,57585,19.31,72978.0,3.35,2.61,2.55,0,*75
1501016770.81,57586,19.25,72976.8,3.35,2.51,2.55,0,*75
1501016772.04,57587,19.31,72978.5,3.35,2.55,2.55,0,*70
1501016773.27,57588,19.31,72976.3,3.35,2.55,2.55,0,*7F
1501016774.47,57589,19.25,72976.3,3.35,2.61,2.55,0,*79
1501016775.68,57590,19.31,72976.3,3.37,2.61,2.61,0,*74
1501016776.87,57591,19.31,72976.3,3.35,2.61,2.61,0,*77
1501016778.06,57592,19.31,72976.3,3.35,2.65,2.61,0,*70
1501016779.25,57593,19.31,72978.3,3.35,2.65,2.61,0,*71
1501016780.44,57594,19.31,72976.8,3.35,2.65,2.61,0,*76
1501016781.65,57595,19.31,72980.3,3.37,2.65,2.65,0,*71
1501016782.84,57596,19.31,72976.0,3.35,2.61,2.65,0,*74
1501016784.02,57597,19.31,72978.5,3.35,2.61,2.61,0,*71
1501016785.21,57598,19.25,72976.3,3.35,2.61,2.61,0,*7E
1501016786.42,57599,19.31,72978.0,3.35,2.61,2.55,0,*78
1501016787.6,57600,19.25,72978.8,3.35,2.61,2.61,0,*7C
1501016788.81,57601,19.31,72976.3,3.35,2.55,2.61,0,*7A
1501016790.02,57602,19.31,72980.3,3.35,2.55,2.61,0,*79
1501016791.21,57603,19.31,72980.0,3.35,2.65,2.61,0,*7B
1501016792.44,57604,19.31,72980.5,3.37,2.65,2.55,0,*79
1501016793.63,57605,19.31,72978.0,3.35,2.65,2.61,0,*7D
1501016794.85,57606,19.31,72980.0,3.37,2.65,2.61,0,*7C
1501016796.04,57607,19.31,72980.0,3.35,2.65,2.61,0,*7F
1501016797.23,57608,19.31,72980.8,3.35,2.65,2.61,0,*70
1501016798.42,57609,19.31,72982.0,3.35,2.65,2.61,0,*71
1501016799.6,57610,19.25,72974.8,3.35,2.61,2.61,0,*7D
1501016800.81,57611,19.31,72978.0,3.35,2.55,2.61,0,*7B
1501016802.02,57612,19.31,72980.3,3.35,2.55,2.61,0,*78
1501016803.21,57613,19.25,72976.5,3.35,2.61,2.61,0,*7E
1501016804.44,57614,19.31,72978.0,3.35,2.51,2.55,0,*7D
1501016805.68,57615,19.31,72976.5,3.35,2.51,2.51,0,*78
1501016806.91,57616,19.31,72982.5,3.35,2.55,2.55,0,*7B
1501016808.17,57617,19.31,72982.8,3.33,2.47,2.47,0,*7C
1501016809.41,57618,19.31,72982.0,3.35,2.43,2.51,0,*76
1501016810.64,57619,19.31,72982.5,3.35,2.43,2.51,0,*77
1501016811.88,57620,19.31,72978.8,3.35,2.51,2.43,0,*7D
1501016813.12,57621,19.31,72982.3,3.35,2.51,2.51,0,*7F
1501016814.38,57622,19.31,72980.3,3.33,2.39,2.39,0,*7A
1501016815.64,57623,19.31,72980.8,3.33,2.39,2.39,0,*7B
1501016816.87,57624,19.31,72978.8,3.33,2.39,2.35,0,*70
1501016818.07,57625,19.31,72982.3,3.31,2.31,2.35,0,*7B
1501016819.28,57626,19.31,72980.8,3.33,2.27,2.35,0,*7D
1501016820.48,57627,19.25,72976.3,3.33,2.35,2.35,0,*7F
1501016821.72,57628,19.31,72978.0,3.33,2.35,2.39,0,*7C
1501016822.97,57629,19.31,72978.5,3.33,2.39,2.25,0,*7C
1501016824.24,57630,19.25,72978.0,3.33,2.39,2.39,0,*79
1501016825.46,57631,19.31,72982.8,3.31,2.35,2.39,0,*76
1501016826.72,57632,19.31,72980.5,3.33,2.39,2.47,0,*72
1501016827.98,57633,19.25,72978.8,3.33,2.43,2.43,0,*7A
1501016829.24,57634,19.31,72980.8,3.33,2.47,2.47,0,*7D
1501016830.5,57635,19.31,72986.3,3.33,2.47,2.47,0,*7C
1501016831.72,57636,19.31,72980.3,3.31,2.35,2.43,0,*7C
1501016832.98,57637,19.31,72980.3,3.33,2.39,2.39,0,*7E
1501016834.21,57638,19.31,72982.0,3.31,2.43,2.35,0,*72
1501016835.47,57639,19.31,72980.8,3.33,2.39,2.39,0,*70
1501016836.72,57640,19.31,72982.5,3.31,2.43,2.43,0,*7C
1501016837.92,57641,19.31,72980.5,3.31,2.35,2.35,0,*7D
1501016839.12,57642,19.31,72982.3,3.31,2.35,2.35,0,*7E
1501016840.38,57643,19.31,72980.5,3.33,2.47,2.39,0,*74
1501016841.63,57644,19.25,72976.5,3.31,2.43,2.43,0,*78
1501016842.88,57645,19.25,72980.3,3.31,2.43,2.43,0,*79
1501016844.13,57646,19.31,72980.5,3.31,2.43,2.47,0,*7E
1501016845.39,57647,19.31,72980.5,3.31,2.43,2.47,0,*7F
1501016846.64,57648,19.25,72982.3,3.31,2.43,2.43,0,*74
1501016847.84,57649,19.31,72980.5,3.29,2.35,2.43,0,*7D
1501016849.05,57650,19.31,72982.8,3.29,2.43,2.35,0,*75
1501016850.25,57651,19.31,72982.3,3.31,2.35,2.35,0,*7C
1501016851.5,57652,19.31,72980.0,3.31,2.43,2.43,0,*7F
1501016852.7,57653,19.25,72980.3,3.29,2.35,2.43,0,*76
1501016853.91,57654,19.31,72980.5,3.29,2.35,2.43,0,*71
1501016855.14,57655,19.25,72980.3,3.29,2.43,2.43,0,*71
1501016856.35,57656,19.31,72980.8,3.29,2.43,2.35,0,*73
1501016857.55,57657,19.25,72980.3,3.29,2.43,2.35,0,*72
1501016858.73,57658,19.31,72980.0,3.29,2.35,2.35,0,*7C
1501016859.96,57659,19.25,72980.8,3.29,2.43,2.43,0,*7D
1501016861.16,57660,19.25,72982.3,3.29,2.43,2.35,0,*76
1501016862.37,57661,19.25,72980.5,3.29,2.43,2.35,0,*77
1501016863.62,57662,19.31,72980.5,3.27,2.39,2.39,0,*7B
1501016864.85,57663,19.25,72982.3,3.29,2.43,2.43,0,*74
1501016866.06,57664,19.25,72982.3,3.29,2.43,2.35,0,*72
1501016867.29,57665,19.31,72982.8,3.29,2.43,2.43,0,*72
1501016868.52,57666,19.31,72982.8,3.29,2.47,2.43,0,*75
1501016869.76,57667,19.25,72980.0,3.29,2.43,2.43,0,*70
1501016870.96,57668,19.31,72982.8,3.29,2.43,2.35,0,*7E
1501016872.19,57669,19.31,72982.5,3.27,2.31,2.39,0,*78
1501016873.44,57670,19.31,72982.5,3.27,2.43,2.39,0,*75
1501016874.69,57671,19.31,72986.0,3.27,2.43,2.39,0,*74
1501016875.91,57672,19.31,72984.5,3.27,2.39,2.31,0,*72
1501016877.11,57673,19.25,72980.8,3.27,2.31,2.31,0,*7B
1501016878.33,57674,19.25,72984.0,3.27,2.31,2.39,0,*74
1501016879.53,57675,19.25,72982.5,3.27,2.35,2.35,0,*7D
1501016880.78,57676,19.25,72982.3,3.27,2.17,2.21,0,*7B
1501016882.03,57677,19.31,72984.8,3.27,2.09,2.21,0,*75
1501016883.29,57678,19.31,72986.5,3.27,2.17,2.17,0,*70
1501016884.48,57679,19.31,72984.0,3.27,2.27,2.27,0,*71
1501016885.66,57680,19.25,72984.0,3.29,2.31,2.35,0,*7D
1501016886.91,57681,19.31,72986.8,3.27,2.39,2.21,0,*7F
1501016888.13,57682,19.31,72982.5,3.27,2.27,2.21,0,*73
1501016889.37,57683,19.31,72984.0,3.27,2.21,2.21,0,*74
1501016890.6,57684,19.25,72980.3,3.25,2.17,2.17,0,*71
1501016891.83,57685,19.31,72986.3,3.25,2.17,2.09,0,*7F
1501016893.06,57686,19.25,72982.3,3.21,2.25,2.13,0,*72
1501016894.26,57687,19.31,72982.8,3.25,2.27,2.17,0,*71
1501016895.46,57688,19.31,72986.3,3.25,2.27,2.21,0,*7B
1501016896.69,57689,19.31,72982.3,3.21,2.17,2.25,0,*79
1501016897.86,57690,19.31,72982.5,3.25,2.31,2.27,0,*73
1501016899.04,57691,19.31,72984.0,3.25,2.31,2.27,0,*72
1501016900.21,57692,19.31,72982.3,3.21,2.27,2.27,0,*72
1501016901.38,57693,19.31,72982.8,3.25,2.31,2.27,0,*70
1501016902.55,57694,19.31,72984.3,3.25,2.31,2.31,0,*70
1501016903.72,57695,19.31,72986.0,3.25,2.27,2.31,0,*76
1501016904.91,57696,19.31,72980.8,3.25,2.21,2.31,0,*73
1501016906.09,57697,19.25,72982.0,3.21,2.27,2.27,0,*77
1501016907.28,57698,19.31,72986.8,3.25,2.39,2.31,0,*74
1501016908.48,57699,19.31,72982.8,3.21,2.25,2.27,0,*7B
1501016909.68,57700,19.31,72984.0,3.25,2.27,2.21,0,*7A
1501016910.91,57701,19.31,72984.0,3.21,2.17,2.17,0,*79
1501016912.14,57702,19.31,72984.3,3.21,2.25,2.17,0,*7B
1501016913.36,57703,19.31,72984.5,3.25,2.09,2.09,0,*7F
1501016914.59,57704,19.25,72980.5,3.21,2.13,2.13,0,*7C
1501016915.82,57705,19.31,72980.8,3.25,2.17,2.09,0,*76
1501016917.06,57706,19.31,72980.8,3.21,2.17,2.05,0,*7D
1501016918.29,57707,19.31,72984.0,3.21,2.25,2.13,0,*7A
1501016919.52,57708,19.25,72982.3,3.21,2.17,2.17,0,*70
1501016920.76,57709,19.31,72984.5,3.21,2.17,2.17,0,*71
1501016922.0,57710,19.25,72982.0,3.21,2.17,2.17,0,*79
1501016923.21,57711,19.31,72984.8,3.17,2.21,2.21,0,*7D
1501016924.46,57712,19.31,72984.0,3.19,2.25,2.25,0,*70
1501016925.69,57713,19.31,72984.3,3.17,2.21,2.13,0,*7E
1501016926.91,57714,19.31,72986.3,3.19,2.27,2.25,0,*74
1501016928.14,57715,19.31,72984.8,3.19,2.27,2.17,0,*74
1501016929.34,57716,19.31,72982.5,3.19,2.27,2.27,0,*74
1501016930.54,57717,19.31,72986.5,3.19,2.27,2.27,0,*75
1501016931.77,57718,19.25,72982.5,3.17,2.25,2.13,0,*71
1501016933.03,57719,19.31,72982.8,3.19,2.17,2.17,0,*7B